Early, TX

6:10 PM CST on February 25, 2017 (GMT -0600)
Brownwood Regional

Weather History for KBWD - February, 2014

Change the Weather History Date:

Thursday, February 20, 2014

  Actual Average (KABI) Record (KABI)
Temperature  
Mean Temperature 53 °F -  
Max Temperature 71 °F 59 °F 86 °F (1976)
Min Temperature 35 °F 37 °F 16 °F (1955)
Degree Days  
Heating Degree Days 12    
Growing Degree Days 3 (Base 50)    
Moisture  
Dew Point 40 °F    
Average Humidity 56    
Maximum Humidity 100    
Minimum Humidity 14    
Precipitation  
Precipitation 0.00 in - - ()
Sea Level Pressure  
Sea Level Pressure 29.90 in    
Wind  
Wind Speed 11 mph (NW)    
Max Wind Speed 25 mph    
Max Gust Speed 33 mph    
Visibility 9 miles    
Events      
Averages and records for this station are not official NWS values.
T = Trace of Precipitation, MM = Missing Value Source: NWS Daily Summary

Daily Weather History Graph

Daily Weather History Graph

Search for Another Location

Airport or City:

Trip Planner

Search our weather history database for the weather conditions in past years. The results will help you decide how hot, cold, wet, or windy it might be!

Date:

Astronomy

Feb. 20, 2014 Rise Set
Actual Time 7:12 AM CST 6:26 PM CST
Civil Twilight 6:48 AM CST 6:51 PM CST
Nautical Twilight 6:19 AM CST 7:19 PM CST
Astronomical Twilight 5:51 AM CST 7:48 PM CST
Moon 11:59 PM CST (2/20) 10:18 AM CST (2/20)
Length of Visible Light 12h 03m
Length of Day
11h 13m
Waning Gibbous, 70% of the Moon is Illuminated
Feb 20
Waning Gibbous
Feb 22
Last Quarter
Mar 1
New
Mar 8
First Quarter
Mar 16
Full

Hourly Weather History & Observations

Time (CST) Temp. Windchill Dew Point Humidity Pressure Visibility Wind Dir Wind Speed Gust Speed Precip Events Conditions
12:15 AM 64.4 °F - 59.0 °F 83% 29.67 in 10.0 mi SSE 11.5 mph - N/A   Partly Cloudy
12:35 AM 64.4 °F - 59.0 °F 83% 29.66 in 10.0 mi South 10.4 mph 16.1 mph N/A   Partly Cloudy
12:55 AM 64.4 °F - 59.0 °F 83% 29.67 in 10.0 mi South 9.2 mph - N/A   Scattered Clouds
1:15 AM 64.4 °F - 59.0 °F 83% 29.66 in 9.0 mi South 9.2 mph - N/A   Scattered Clouds
1:35 AM 64.4 °F - 60.8 °F 88% 29.67 in 9.0 mi South 11.5 mph - N/A   Partly Cloudy
1:55 AM 64.4 °F - 60.8 °F 88% 29.67 in 10.0 mi South 11.5 mph - N/A   Partly Cloudy
2:15 AM 64.4 °F - 60.8 °F 88% 29.68 in 10.0 mi South 11.5 mph - N/A   Partly Cloudy
2:35 AM 64.4 °F - 60.8 °F 88% 29.67 in 10.0 mi South 10.4 mph - N/A   Partly Cloudy
2:55 AM 62.6 °F - 60.8 °F 94% 29.67 in 10.0 mi South 10.4 mph - N/A   Scattered Clouds
3:15 AM 62.6 °F - 60.8 °F 94% 29.67 in 10.0 mi South 9.2 mph - N/A   Partly Cloudy
3:35 AM 62.6 °F - 59.0 °F 88% 29.67 in 9.0 mi South 9.2 mph - N/A   Clear
3:55 AM 62.6 °F - 59.0 °F 88% 29.67 in 9.0 mi South 9.2 mph - N/A   Clear
4:15 AM 62.6 °F - 59.0 °F 88% 29.68 in 10.0 mi South 11.5 mph - N/A   Partly Cloudy
4:35 AM 62.6 °F - 59.0 °F 88% 29.68 in 10.0 mi South 11.5 mph - N/A   Partly Cloudy
4:55 AM 62.6 °F - 59.0 °F 88% 29.69 in 10.0 mi South 9.2 mph - N/A   Partly Cloudy
5:15 AM 62.6 °F - 59.0 °F 88% 29.69 in 10.0 mi South 6.9 mph - N/A   Clear
5:35 AM 62.6 °F - 59.0 °F 88% 29.70 in 9.0 mi South 8.1 mph - N/A   Partly Cloudy
5:55 AM 62.6 °F - 59.0 °F 88% 29.70 in 10.0 mi South 6.9 mph - N/A   Scattered Clouds
6:15 AM 60.8 °F - 59.0 °F 94% 29.72 in 9.0 mi South 6.9 mph - N/A   Partly Cloudy
6:35 AM 60.8 °F - 59.0 °F 94% 29.73 in 9.0 mi South 4.6 mph - N/A   Scattered Clouds
6:55 AM 60.8 °F - 59.0 °F 94% 29.74 in 8.0 mi South 3.5 mph - N/A   Partly Cloudy
7:15 AM 59.0 °F - 59.0 °F 100% 29.76 in 7.0 mi SW 4.6 mph - N/A   Clear
7:35 AM 59.0 °F - 59.0 °F 100% 29.77 in 5.0 mi West 3.5 mph - N/A   Clear
7:55 AM 57.2 °F - 57.2 °F 100% 29.78 in 3.0 mi Calm Calm - N/A   Clear
8:15 AM 59.0 °F - 59.0 °F 100% 29.80 in 5.0 mi West 3.5 mph - N/A   Clear
8:35 AM 59.0 °F - 59.0 °F 100% 29.83 in 5.0 mi NNW 4.6 mph - N/A   Clear
8:55 AM 62.6 °F - 60.8 °F 94% 29.84 in 6.0 mi Calm Calm - N/A   Clear
9:15 AM 62.6 °F - 60.8 °F 94% 29.85 in 7.0 mi WNW 9.2 mph - N/A   Clear
9:35 AM 64.4 °F - 59.0 °F 83% 29.85 in 9.0 mi West 8.1 mph - N/A   Clear
9:55 AM 66.2 °F - 48.2 °F 52% 29.86 in 10.0 mi WNW 15.0 mph 19.6 mph N/A   Clear
10:15 AM 69.8 °F - 32.0 °F 25% 29.86 in 10.0 mi NW 13.8 mph 20.7 mph N/A   Clear
10:35 AM 71.6 °F - 24.8 °F 17% 29.87 in 10.0 mi NW 23.0 mph 29.9 mph N/A   Clear
10:55 AM 71.6 °F - 19.4 °F 14% 29.88 in 10.0 mi NW 25.3 mph 33.4 mph N/A   Clear
11:15 AM 71.6 °F - 23.0 °F 16% 29.89 in 10.0 mi NNW 20.7 mph 27.6 mph N/A   Clear
11:35 AM 68.0 °F - 26.6 °F 21% 29.92 in 8.0 mi North 20.7 mph 29.9 mph N/A   Clear
11:55 AM 68.0 °F - 26.6 °F 21% 29.93 in 6.0 mi NNW 24.2 mph 27.6 mph N/A   Haze
12:15 PM 68.0 °F - 30.2 °F 24% 29.94 in 5.0 mi North 17.3 mph 24.2 mph N/A   Haze
12:35 PM 66.2 °F - 28.4 °F 24% 29.95 in 7.0 mi North 18.4 mph 27.6 mph N/A   Clear
12:55 PM 66.2 °F - 28.4 °F 24% 29.95 in 8.0 mi NNW 21.9 mph 28.8 mph N/A   Clear
1:15 PM 66.2 °F - 28.4 °F 24% 29.95 in 9.0 mi NNW 24.2 mph 32.2 mph N/A   Clear
1:35 PM 66.2 °F - 30.2 °F 26% 29.96 in 10.0 mi NNW 19.6 mph 25.3 mph N/A   Clear
1:55 PM 66.2 °F - 28.4 °F 24% 29.96 in 10.0 mi NW 19.6 mph 31.1 mph N/A   Clear
2:15 PM 66.2 °F - 30.2 °F 26% 29.96 in 10.0 mi North 16.1 mph 25.3 mph N/A   Clear
2:35 PM 66.2 °F - 28.4 °F 24% 29.96 in 10.0 mi NW 18.4 mph - N/A   Clear
2:55 PM 64.4 °F - 28.4 °F 26% 29.96 in 10.0 mi NNW 20.7 mph 27.6 mph N/A   Clear
3:15 PM 64.4 °F - 28.4 °F 26% 29.97 in 10.0 mi NW 16.1 mph 21.9 mph N/A   Clear
3:35 PM 64.4 °F - 28.4 °F 26% 29.98 in 10.0 mi North 17.3 mph 27.6 mph N/A   Clear
3:55 PM 64.4 °F - 26.6 °F 24% 29.98 in 10.0 mi NNW 18.4 mph 26.5 mph N/A   Clear
4:15 PM 62.6 °F - 28.4 °F 27% 29.99 in 10.0 mi NNW 19.6 mph 24.2 mph N/A   Clear
4:35 PM 62.6 °F - 26.6 °F 26% 30.00 in 10.0 mi NNW 18.4 mph 25.3 mph N/A   Clear
4:55 PM 62.6 °F - 26.6 °F 26% 30.01 in 10.0 mi North 18.4 mph 24.2 mph N/A   Clear
5:15 PM 62.6 °F - 26.6 °F 26% 30.02 in 10.0 mi NNW 12.7 mph 20.7 mph N/A   Clear
5:35 PM 60.8 °F - 26.6 °F 27% 30.03 in 10.0 mi North 13.8 mph 21.9 mph N/A   Clear
5:55 PM 59.0 °F - 26.6 °F 29% 30.04 in 10.0 mi NNW 16.1 mph 20.7 mph N/A   Clear
6:15 PM 59.0 °F - 26.6 °F 29% 30.04 in 10.0 mi North 10.4 mph - N/A   Clear
6:35 PM 57.2 °F - 26.6 °F 31% 30.05 in 10.0 mi North 12.7 mph - N/A   Clear
6:55 PM 57.2 °F - 24.8 °F 29% 30.06 in 10.0 mi North 11.5 mph - N/A   Clear
7:15 PM 55.4 °F - 24.8 °F 31% 30.08 in 10.0 mi North 9.2 mph - N/A   Clear
7:35 PM 53.6 °F - 24.8 °F 33% 30.09 in 10.0 mi North 6.9 mph - N/A   Partly Cloudy
7:55 PM 51.8 °F - 24.8 °F 35% 30.10 in 10.0 mi North 6.9 mph - N/A   Scattered Clouds
8:15 PM 51.8 °F - 24.8 °F 35% 30.11 in 10.0 mi North 6.9 mph - N/A   Scattered Clouds
8:35 PM 50.0 °F - 24.8 °F 37% 30.11 in 10.0 mi NNE 5.8 mph - N/A   Scattered Clouds
8:55 PM 48.2 °F - 24.8 °F 40% 30.11 in 10.0 mi NNE 4.6 mph - N/A   Scattered Clouds
9:15 PM 46.4 °F 45.2 °F 24.8 °F 43% 30.12 in 10.0 mi ENE 3.5 mph - N/A   Mostly Cloudy
9:35 PM 46.4 °F 44.3 °F 23.0 °F 40% 30.12 in 10.0 mi ENE 4.6 mph - N/A   Overcast
9:55 PM 46.4 °F - 23.0 °F 40% 30.12 in 10.0 mi Calm Calm - N/A   Overcast
10:15 PM 39.2 °F - 24.8 °F 56% 30.12 in 10.0 mi Calm Calm - N/A   Overcast
10:35 PM 41.0 °F - 24.8 °F 53% 30.12 in 10.0 mi Calm Calm - N/A   Overcast
10:55 PM 39.2 °F - 24.8 °F 56% 30.13 in 10.0 mi Calm Calm - N/A   Overcast
11:15 PM 35.6 °F - 26.6 °F 70% 30.13 in 10.0 mi Calm Calm - N/A   Overcast
11:35 PM 35.6 °F - 24.8 °F 65% 30.14 in 10.0 mi Calm Calm - N/A   Overcast
11:55 PM 35.6 °F - 24.8 °F 65% 30.14 in 10.0 mi Calm Calm - N/A   Mostly Cloudy